This is the latest recevied weather packets stored in our database for station/object KG5CK-1. If no packets are shown the sender has not sent any weather packets the latest 10 day(s).
| Time | Temp. | Humidity | Pressure | Rain* | Wind** | Luminosity | Snow |
|---|---|---|---|---|---|---|---|
| 1788638883 | 37.78° C | 42% | 1008 hPa | 0 mm | 0.89 m/s, 63° | - | - |
| 1788638823 | 37.78° C | 42% | 1008 hPa | 0 mm | 0.89 m/s, 63° | - | - |
| 1788638763 | 37.78° C | 42% | 1008 hPa | 0 mm | 0.89 m/s, 63° | - | - |
| 1788638702 | 37.22° C | 45% | 1008.1 hPa | 0 mm | 1.79 m/s, 64° | - | - |
| 1788638643 | 37.22° C | 45% | 1008.1 hPa | 0 mm | 1.79 m/s, 64° | - | - |
| 1788638582 | 37.22° C | 45% | 1008.1 hPa | 0 mm | 1.79 m/s, 64° | - | - |
| 1788638522 | 37.22° C | 45% | 1008.1 hPa | 0 mm | 1.79 m/s, 64° | - | - |
| 1788638462 | 37.22° C | 45% | 1008.1 hPa | 0 mm | 1.79 m/s, 64° | - | - |
| 1788638403 | 37.78° C | 43% | 1008.3 hPa | 0 mm | 1.34 m/s, 158° | - | - |
| 1788638342 | 37.78° C | 43% | 1008.3 hPa | 0 mm | 1.34 m/s, 158° | - | - |
| 1788638282 | 37.78° C | 43% | 1008.3 hPa | 0 mm | 1.34 m/s, 158° | - | - |
| 1788638223 | 37.78° C | 43% | 1008.3 hPa | 0 mm | 1.34 m/s, 158° | - | - |
| 1788638163 | 37.78° C | 43% | 1008.3 hPa | 0 mm | 1.34 m/s, 158° | - | - |
| 1788638102 | 37.22° C | 45% | 1008.3 hPa | 0 mm | 2.24 m/s, 127° | - | - |
| 1788638043 | 37.22° C | 45% | 1008.3 hPa | 0 mm | 2.24 m/s, 127° | - | - |
| 1788637983 | 37.22° C | 45% | 1008.3 hPa | 0 mm | 2.24 m/s, 127° | - | - |
| 1788637923 | 37.22° C | 45% | 1008.3 hPa | 0 mm | 2.24 m/s, 127° | - | - |
| 1788637862 | 37.22° C | 45% | 1008.3 hPa | 0 mm | 2.24 m/s, 127° | - | - |
| 1788637802 | 37.22° C | 43% | 1008.4 hPa | 0 mm | 0.89 m/s, 214° | - | - |
| 1788637742 | 37.22° C | 43% | 1008.4 hPa | 0 mm | 0.89 m/s, 214° | - | - |
| 1788637682 | 37.22° C | 43% | 1008.4 hPa | 0 mm | 0.89 m/s, 214° | - | - |
| 1788637622 | 37.22° C | 43% | 1008.4 hPa | 0 mm | 0.89 m/s, 214° | - | - |
| 1788637562 | 37.22° C | 43% | 1008.4 hPa | 0 mm | 0.89 m/s, 214° | - | - |
| 1788637503 | 36.67° C | 43% | 1008.5 hPa | 0 mm | 0.45 m/s, 67° | - | - |
| 1788637442 | 36.67° C | 43% | 1008.5 hPa | 0 mm | 0.45 m/s, 67° | - | - |
* Rain latest hour (hover to see other rain measurements)
** Current wind speed in m/s (hover to see current wind gust speed)